AISSAT 2 (40075 NORAD) Tracking and Keplerian Element Data

This shows tracking and keplerian element data for the satellite.

Feedback or suggestion? Click here.




ElementValue
Catalog40075
NameAISSAT 2
Epoch Orbit32972
Epoch Day225.06848433
Epoch Year2020
RAAN51.4573
Inclination98.4592
Eccentricity0.0005612
Argument of Perigee340.7984
Mean Anonmoly19.3007
Mean Motion14.82527578
Decay Rate1.1E-06
L11 40075U 14037G 20225.06848433 .00000110 00000-0 21072-4 0 9996
L22 40075 98.4592 51.4573 0005612 340.7984 19.3007 14.82527578329721

Live tracking and technical data element details for AISSAT 2 (NORAD 40075). AISSAT 2 can be tracked NOW for your location showing map with azimuth and elevation plus other details from your city location.

Track the satellite on the map from your city or location and see movement details for azimuth, elevation, latitude, longitude, range, height, and movement on the map or in text.







IsCatalogInMostPopularTable: catalog: 40075, numindb: 3830
Update: records affected: 1



GetName: 40075 AISSAT 2

Hit Count: updated at: Fri, 14 Aug 2020 05:42:14 GMT